Buffalo, NY

4:17 AM EDT on May 25, 2017 (GMT -0400)
Buffalo Niagara International

Weather History for KBUF - August, 2013

Change the Weather History Date:

Friday, August 2, 2013

  Actual Average Record
Temperature  
Mean Temperature 68 °F 71 °F  
Max Temperature 76 °F 80 °F 96 °F (1944)
Min Temperature 60 °F 62 °F 49 °F (1947)
Degree Days  
Heating Degree Days 0 0  
Month to date heating degree days 0 0  
Since 1 June heating degree days 70 73  
Since 1 July heating degree days 6 9  
Cooling Degree Days 3 6  
Month to date cooling degree days 8 12  
Year to date cooling degree days 418 338  
Since 1 June cooling degree days 347 312  
Growing Degree Days 18 (Base 50)    
Moisture  
Dew Point 60 °F    
Average Humidity 77    
Maximum Humidity 100    
Minimum Humidity 53    
Precipitation  
Precipitation 0.46 in 0.12 in 1.74 in (1961)
Month to date precipitation 0.90 0.23  
Year to date precipitation 25.02 22.13  
Snow  
Snow 0.00 in 0.00 in 0.00 in ()
Month to date snowfall 0.0 0.0  
Since 1 June snowfall 0.0 0.0  
Since 1 July snowfall 0.0 0.0  
Snow Depth 0.00 in    
Sea Level Pressure  
Sea Level Pressure 29.87 in    
Wind  
Wind Speed 12 mph (SW)    
Max Wind Speed 29 mph    
Max Gust Speed 36 mph    
Visibility 8 miles    
Events Rain , Thunderstorm    
T = Trace of Precipitation, MM = Missing Value Source: NWS Daily Summary

Daily Weather History Graph

Daily Weather History Graph

Search for Another Location

Airport or City:

Trip Planner

Search our weather history database for the weather conditions in past years. The results will help you decide how hot, cold, wet, or windy it might be!

Date:

Astronomy

Aug. 02, 2013 Rise Set
Actual Time 6:07 AM EDT 8:34 PM EDT
Civil Twilight 5:35 AM EDT 9:06 PM EDT
Nautical Twilight 4:55 AM EDT 9:46 PM EDT
Astronomical Twilight 4:10 AM EDT 10:30 PM EDT
Moon 2:25 AM EDT (8/2) 5:31 PM EDT (8/2)
Length of Visible Light 15h 31m
Length of Day
14h 27m
Waning Crescent, 16% of the Moon is Illuminated
Aug 2
Waning Crescent
Aug 6
New
Aug 14
First Quarter
Aug 20
Full
Aug 28
Last Quarter

Hourly Weather History & Observations

Time (EDT) Temp. Dew Point Humidity Pressure Visibility Wind Dir Wind Speed Gust Speed Precip Events Conditions
12:54 AM 64.0 °F 59.0 °F 84% 29.87 in 10.0 mi SW 3.5 mph - N/A   Partly Cloudy
1:54 AM 63.0 °F 57.9 °F 84% 29.88 in 10.0 mi SW 4.6 mph - N/A   Partly Cloudy
2:54 AM 62.1 °F 57.9 °F 86% 29.87 in 10.0 mi SSW 3.5 mph - N/A   Partly Cloudy
3:54 AM 62.1 °F 57.9 °F 86% 29.86 in 10.0 mi South 3.5 mph - N/A   Partly Cloudy
4:54 AM 60.1 °F 59.0 °F 96% 29.86 in 6.0 mi South 4.6 mph - N/A   Partly Cloudy
5:54 AM 60.1 °F 59.0 °F 96% 29.87 in 5.0 mi South 3.5 mph - N/A   Scattered Clouds
6:54 AM 61.0 °F 60.1 °F 97% 29.88 in 3.0 mi South 3.5 mph - N/A   Scattered Clouds
7:54 AM 64.9 °F 63.0 °F 93% 29.89 in 4.0 mi SSW 6.9 mph - N/A   Scattered Clouds
8:54 AM 68.0 °F 63.0 °F 84% 29.89 in 10.0 mi SSW 9.2 mph - N/A   Mostly Cloudy
9:49 AM 66.2 °F 62.6 °F 88% 29.89 in 1.5 mi Calm Calm - 0.07 in Rain Heavy Rain
9:54 AM 66.0 °F 64.0 °F 93% 29.88 in 2.0 mi Calm Calm - 0.12 in Rain Heavy Rain
10:00 AM 66.2 °F 64.4 °F 94% 29.89 in 5.0 mi Calm Calm - 0.03 in Rain Light Rain
10:04 AM 66.2 °F 64.4 °F 94% 29.89 in 5.0 mi East 3.5 mph - 0.05 in Rain , Thunderstorm Light Thunderstorms and Rain
10:18 AM 66.2 °F 62.6 °F 88% 29.89 in 4.0 mi ENE 13.8 mph - 0.16 in Rain , Thunderstorm Heavy Thunderstorms and Rain
10:41 AM 66.2 °F 60.8 °F 83% 29.88 in 10.0 mi Calm Calm - 0.19 in Rain Light Rain
10:54 AM 66.9 °F 62.1 °F 84% 29.88 in 10.0 mi Calm Calm - 0.19 in   Mostly Cloudy
11:17 AM 71.6 °F 64.4 °F 78% 29.87 in 10.0 mi SW 15.0 mph - N/A   Mostly Cloudy
11:54 AM 73.0 °F 64.0 °F 73% 29.87 in 10.0 mi WSW 19.6 mph 26.5 mph N/A   Mostly Cloudy
12:54 PM 73.9 °F 61.0 °F 64% 29.87 in 10.0 mi WSW 17.3 mph 24.2 mph N/A   Mostly Cloudy
1:54 PM 75.0 °F 59.0 °F 57% 29.87 in 10.0 mi WSW 17.3 mph 25.3 mph N/A   Scattered Clouds
2:54 PM 75.0 °F 57.0 °F 53% 29.87 in 10.0 mi SW 18.4 mph 29.9 mph N/A   Scattered Clouds
3:54 PM 73.9 °F 55.9 °F 53% 29.86 in 10.0 mi SW 21.9 mph 31.1 mph N/A   Scattered Clouds
4:54 PM 73.0 °F 57.0 °F 57% 29.86 in 10.0 mi WSW 20.7 mph 29.9 mph N/A   Scattered Clouds
5:54 PM 73.0 °F 59.0 °F 61% 29.86 in 10.0 mi SW 20.7 mph 28.8 mph N/A   Scattered Clouds
6:54 PM 72.0 °F 55.9 °F 57% 29.84 in 10.0 mi WSW 21.9 mph 29.9 mph N/A   Scattered Clouds
7:54 PM 71.1 °F 57.0 °F 61% 29.85 in 10.0 mi WSW 16.1 mph 23.0 mph N/A   Mostly Cloudy
8:54 PM 71.1 °F 59.0 °F 66% 29.83 in 10.0 mi SW 12.7 mph 19.6 mph N/A   Overcast
9:54 PM 70.0 °F 62.1 °F 76% 29.84 in 10.0 mi SW 10.4 mph - 0.00 in Rain Light Rain
10:54 PM 66.0 °F 62.1 °F 87% 29.84 in 6.0 mi WSW 10.4 mph 17.3 mph 0.14 in Rain Light Rain
11:09 PM 66.2 °F 62.6 °F 88% 29.84 in 10.0 mi WSW 12.7 mph - 0.01 in   Overcast
11:54 PM 68.0 °F 62.1 °F 81% 29.83 in 10.0 mi WSW 17.3 mph 31.1 mph 0.01 in   Mostly Cloudy